TimeEDT,TemperatureF,Dew PointF,Humidity,Sea Level PressureIn,VisibilityMPH,Wind Direction,Wind SpeedMPH,Gust SpeedMPH,PrecipitationIn,Events,Conditions,WindDirDegrees,DateUTC
12:15 AM,35.6,28.4,75,29.69,10.0,NNW,4.6,-,N/A,,Scattered Clouds,330,2012-10-30 04:15:00
12:35 AM,35.6,28.4,75,29.67,10.0,WNW,3.5,-,N/A,,Scattered Clouds,300,2012-10-30 04:35:00
12:55 AM,35.6,26.6,70,29.67,10.0,Calm,Calm,-,N/A,,Clear,0,2012-10-30 04:55:00
1:15 AM,35.6,26.6,70,29.66,10.0,Calm,Calm,-,N/A,,Mostly Cloudy,0,2012-10-30 05:15:00
1:35 AM,35.6,26.6,70,29.65,10.0,WNW,4.6,-,N/A,,Scattered Clouds,300,2012-10-30 05:35:00
1:55 AM,35.6,26.6,70,29.64,10.0,WNW,3.5,-,N/A,,Scattered Clouds,300,2012-10-30 05:55:00
2:15 AM,35.6,24.8,65,29.62,10.0,NW,4.6,-,N/A,,Scattered Clouds,310,2012-10-30 06:15:00
2:35 AM,37.4,23.0,56,29.61,10.0,WNW,10.4,16.1,N/A,,Clear,300,2012-10-30 06:35:00
2:55 AM,37.4,23.0,56,29.61,10.0,WNW,9.2,18.4,N/A,,Clear,300,2012-10-30 06:55:00
3:55 AM,37.4,24.8,60,29.59,10.0,WNW,6.9,-,N/A,,Mostly Cloudy,300,2012-10-30 07:55:00
4:15 AM,37.4,26.6,65,29.59,10.0,NW,5.8,-,N/A,,Overcast,310,2012-10-30 08:15:00
4:55 AM,35.6,28.4,75,29.58,10.0,WNW,5.8,16.1,N/A,Rain,Light Rain,300,2012-10-30 08:55:00
5:15 AM,35.6,30.2,81,29.57,10.0,NW,9.2,17.3,N/A,Rain,Light Rain,310,2012-10-30 09:15:00
5:35 AM,35.6,30.2,81,29.57,10.0,WNW,5.8,16.1,N/A,Rain,Light Rain,300,2012-10-30 09:35:00
5:55 AM,35.6,30.2,81,29.57,10.0,WNW,6.9,19.6,N/A,Rain,Light Rain,300,2012-10-30 09:55:00
6:15 AM,35.6,30.2,81,29.57,10.0,WNW,11.5,16.1,N/A,,Light Drizzle,300,2012-10-30 10:15:00
6:35 AM,35.6,30.2,81,29.57,10.0,WNW,11.5,20.7,N/A,,Scattered Clouds,300,2012-10-30 10:35:00
6:55 AM,35.6,30.2,81,29.57,10.0,NW,9.2,-,N/A,,Scattered Clouds,320,2012-10-30 10:55:00
7:15 AM,35.6,30.2,81,29.56,10.0,WNW,6.9,-,N/A,,Scattered Clouds,290,2012-10-30 11:15:00
7:35 AM,35.6,28.4,75,29.57,10.0,WNW,4.6,-,N/A,,Scattered Clouds,300,2012-10-30 11:35:00
7:55 AM,35.6,28.4,75,29.57,10.0,NW,8.1,-,N/A,,Clear,320,2012-10-30 11:55:00
8:15 AM,37.4,26.6,65,29.58,10.0,NW,5.8,17.3,N/A,,Scattered Clouds,320,2012-10-30 12:15:00
8:35 AM,37.4,26.6,65,29.58,10.0,WNW,9.2,23.0,N/A,,Clear,300,2012-10-30 12:35:00
8:55 AM,37.4,26.6,65,29.59,10.0,WNW,10.4,16.1,N/A,,Clear,300,2012-10-30 12:55:00
9:15 AM,37.4,26.6,65,29.59,10.0,WNW,16.1,24.2,N/A,,Scattered Clouds,300,2012-10-30 13:15:00
9:35 AM,37.4,26.6,65,29.60,10.0,WNW,10.4,21.9,N/A,,Mostly Cloudy,290,2012-10-30 13:35:00
9:55 AM,37.4,26.6,65,29.60,10.0,WNW,6.9,-,N/A,,Overcast,300,2012-10-30 13:55:00
10:15 AM,37.4,28.4,70,29.60,10.0,WNW,6.9,20.7,N/A,,Overcast,290,2012-10-30 14:15:00
10:35 AM,37.4,28.4,70,29.61,10.0,WNW,9.2,16.1,N/A,,Overcast,300,2012-10-30 14:35:00
10:55 AM,37.4,28.4,70,29.61,10.0,WNW,12.7,16.1,N/A,,Mostly Cloudy,300,2012-10-30 14:55:00
11:15 AM,37.4,28.4,70,29.61,10.0,WNW,8.1,-,N/A,,Scattered Clouds,300,2012-10-30 15:15:00
11:35 AM,37.4,28.4,70,29.61,10.0,WNW,6.9,16.1,N/A,,Mostly Cloudy,300,2012-10-30 15:35:00
11:55 AM,37.4,28.4,70,29.62,10.0,WNW,4.6,-,N/A,,Overcast,290,2012-10-30 15:55:00
12:15 PM,37.4,28.4,70,29.61,10.0,WNW,5.8,-,N/A,,Overcast,300,2012-10-30 16:15:00
12:35 PM,39.2,28.4,65,29.61,10.0,WNW,4.6,-,N/A,,Overcast,300,2012-10-30 16:35:00
12:55 PM,39.2,28.4,65,29.61,10.0,WNW,9.2,18.4,N/A,,Overcast,300,2012-10-30 16:55:00
1:15 PM,39.2,28.4,65,29.61,10.0,WNW,10.4,17.3,N/A,,Overcast,300,2012-10-30 17:15:00
1:35 PM,39.2,28.4,65,29.61,10.0,West,11.5,23.0,N/A,,Overcast,280,2012-10-30 17:35:00
1:55 PM,39.2,30.2,70,29.61,10.0,WNW,8.1,16.1,N/A,,Overcast,300,2012-10-30 17:55:00
2:15 PM,39.2,30.2,70,29.61,10.0,WNW,4.6,-,N/A,,Light Drizzle,300,2012-10-30 18:15:00
2:35 PM,39.2,30.2,70,29.62,10.0,WNW,6.9,-,N/A,,Light Drizzle,300,2012-10-30 18:35:00
2:55 PM,39.2,30.2,70,29.62,10.0,WNW,8.1,21.9,N/A,,Light Drizzle,300,2012-10-30 18:55:00
3:15 PM,39.2,32.0,75,29.62,10.0,NE,4.6,-,N/A,Rain,Light Rain,40,2012-10-30 19:15:00
3:35 PM,39.2,32.0,75,29.63,10.0,WNW,10.4,-,N/A,Rain,Light Rain,300,2012-10-30 19:35:00
3:55 PM,37.4,32.0,81,29.63,10.0,WNW,9.2,-,N/A,Rain,Light Rain,300,2012-10-30 19:55:00
4:15 PM,37.4,32.0,81,29.64,10.0,NW,5.8,-,N/A,Rain,Light Rain,310,2012-10-30 20:15:00
4:35 PM,37.4,32.0,81,29.64,10.0,WNW,8.1,-,N/A,Rain,Light Rain,300,2012-10-30 20:35:00
4:55 PM,37.4,32.0,81,29.65,10.0,WNW,5.8,-,N/A,Rain,Light Rain,300,2012-10-30 20:55:00
5:15 PM,37.4,32.0,81,29.65,10.0,WNW,5.8,-,N/A,Rain,Light Rain,300,2012-10-30 21:15:00
5:35 PM,37.4,32.0,81,29.66,10.0,WNW,8.1,-,N/A,,Drizzle,300,2012-10-30 21:35:00
5:55 PM,37.4,32.0,81,29.66,10.0,WNW,5.8,-,0.01,Rain,Light Rain,300,2012-10-30 21:55:00
6:15 PM,35.6,32.0,87,29.67,10.0,WNW,6.9,-,N/A,Rain,Rain,300,2012-10-30 22:15:00
6:35 PM,35.6,32.0,87,29.68,10.0,WNW,4.6,-,N/A,,Drizzle,300,2012-10-30 22:35:00
6:55 PM,35.6,32.0,87,29.68,7.0,WNW,6.9,-,N/A,Rain,Light Rain,300,2012-10-30 22:55:00
7:15 PM,37.4,32.0,81,29.69,7.0,NW,8.1,-,0.01,,Drizzle,310,2012-10-30 23:15:00
7:35 PM,37.4,32.0,81,29.70,7.0,NW,6.9,-,0.01,Rain,Rain,310,2012-10-30 23:35:00
7:55 PM,37.4,32.0,81,29.71,10.0,WNW,5.8,-,0.01,,Drizzle,300,2012-10-30 23:55:00
8:15 PM,37.4,32.0,81,29.71,10.0,WNW,4.6,-,N/A,,Drizzle,290,2012-10-31 00:15:00
8:35 PM,37.4,32.0,81,29.73,10.0,NW,5.8,-,N/A,,Drizzle,310,2012-10-31 00:35:00
8:55 PM,37.4,32.0,81,29.73,10.0,NW,3.5,-,N/A,,Light Drizzle,310,2012-10-31 00:55:00
9:15 PM,37.4,30.2,75,29.74,10.0,NNE,4.6,-,N/A,,Overcast,20,2012-10-31 01:15:00
9:35 PM,37.4,30.2,75,29.75,10.0,WNW,8.1,-,N/A,,Overcast,290,2012-10-31 01:35:00
9:55 PM,37.4,28.4,70,29.75,10.0,WNW,5.8,-,N/A,,Overcast,300,2012-10-31 01:55:00
10:15 PM,37.4,28.4,70,29.75,10.0,Calm,Calm,-,N/A,,Overcast,0,2012-10-31 02:15:00
10:35 PM,37.4,28.4,70,29.75,10.0,ENE,5.8,-,N/A,,Overcast,70,2012-10-31 02:35:00
10:55 PM,37.4,28.4,70,29.75,10.0,Calm,Calm,-,N/A,,Overcast,0,2012-10-31 02:55:00
11:15 PM,39.2,26.6,61,29.75,10.0,NW,9.2,20.7,N/A,,Overcast,310,2012-10-31 03:15:00
11:35 PM,39.2,26.6,61,29.75,10.0,WNW,6.9,17.3,N/A,,Overcast,300,2012-10-31 03:35:00
11:55 PM,39.2,26.6,61,29.75,10.0,Calm,Calm,-,N/A,,Overcast,0,2012-10-31 03:55:00